Agadir Al Massira, Morocco

6:47 PM WEST on April 19, 2018 (GMT +0100)
Agadir Al Massira

Weather History for GMAD - November, 2013

Change the Weather History Date:

Wednesday, November 6, 2013

  Actual Average Record
Temperature  
Mean Temperature 64 °F -  
Max Temperature 74 °F - - ()
Min Temperature 54 °F - - ()
Degree Days  
Heating Degree Days 1    
Growing Degree Days 14 (Base 50)    
Moisture  
Dew Point 57 °F    
Average Humidity 80    
Maximum Humidity 94    
Minimum Humidity 52    
Precipitation  
Precipitation 0.00 in - - ()
Sea Level Pressure  
Sea Level Pressure 30.09 in    
Wind  
Wind Speed 2 mph ()    
Max Wind Speed 12 mph    
Max Gust Speed -    
Visibility 4.8 miles    
Events      
T = Trace of Precipitation, MM = Missing Value Source: Averaged Metar Reports

Daily Weather History Graph

Daily Weather History Graph

Search for Another Location

Airport or City:

Astronomy

Nov. 06, 2013 Rise Set
Actual Time 6:55 AM WET 5:46 PM WET
Civil Twilight 6:30 AM WET 6:11 PM WET
Nautical Twilight 6:02 AM WET 6:39 PM WET
Astronomical Twilight 5:34 AM WET 7:08 PM WET
Moon 9:52 AM WET (11/6) 8:41 PM WET (11/6)
Length of Visible Light 11h 40m
Length of Day
10h 50m
Waxing Crescent, 12% of the Moon is Illuminated
Nov 6
Waxing Crescent
Nov 10
First Quarter
Nov 17
Full
Nov 25
Last Quarter
Dec 3
New

Hourly Weather History & Observations

Time (WET) Temp. Dew Point Humidity Pressure Visibility Wind Dir Wind Speed Gust Speed Precip Events Conditions
12:00 AM 59 °F 55 °F 82% 30.11 in 6 mi East 3.5 mph - -  
12:00 AM 59.0 °F 55.4 °F 88% 30.09 in - East 3.5 mph - N/A   Clear
1:00 AM 59.0 °F 53.6 °F 82% 30.09 in 6.2 mi ENE 4.6 mph - N/A   Unknown
2:00 AM 57.2 °F 53.6 °F 88% 30.06 in 6.2 mi Calm Calm - N/A   Unknown
3:00 AM 57 °F 53 °F 82% 30.09 in 6 mi Calm Calm - -  
3:00 AM 57.2 °F 53.6 °F 88% 30.06 in - Calm Calm - N/A   Clear
4:00 AM 55.4 °F 51.8 °F 88% 30.06 in 6.2 mi Calm Calm - N/A   Unknown
5:00 AM 55.4 °F 53.6 °F 94% 30.09 in 6.2 mi Calm Calm - N/A   Unknown
6:00 AM 59 °F 56 °F 86% 30.10 in 5 mi Calm Calm - -   Mostly Cloudy
6:00 AM 59.0 °F 55.4 °F 88% 30.09 in 5.0 mi Calm Calm - N/A   Mostly Cloudy
6:58 AM 60.8 °F 57.2 °F 88% 30.09 in 1.2 mi Calm Calm - N/A   Overcast
6:59 AM 60.8 °F 57.2 °F 88% 30.09 in 1.2 mi Calm Calm - N/A   Overcast
7:00 AM 60.8 °F 57.2 °F 88% 30.09 in 1.9 mi Calm Calm - N/A   Mostly Cloudy
8:00 AM 62.6 °F 59.0 °F 88% 30.12 in 3.7 mi Calm Calm - N/A   Scattered Clouds
9:00 AM 65 °F 60 °F 79% 30.14 in 6 mi Calm Calm - -   Overcast
9:00 AM 64.4 °F 60.8 °F 88% 30.12 in 6.2 mi Calm Calm - N/A   Scattered Clouds
10:00 AM 68.0 °F 59.0 °F 73% 30.12 in 6.2 mi Variable 2.3 mph - N/A   Unknown
11:00 AM 71.6 °F 59.0 °F 64% 30.12 in 6.2 mi Variable 2.3 mph - N/A   Scattered Clouds
12:00 PM 74 °F 60 °F 52% 30.11 in 6 mi West 9.2 mph - -  
12:00 PM 73.4 °F 60.8 °F 65% 30.09 in 6.2 mi West 9.2 mph - N/A   Unknown
1:00 PM 73.4 °F 59.0 °F 61% 30.09 in - WSW 9.2 mph - N/A   Clear
3:00 PM 72 °F 59 °F 54% 30.06 in 6 mi West 11.5 mph - -  
3:00 PM 71.6 °F 59.0 °F 64% 30.06 in - West 11.5 mph - N/A   Clear
4:00 PM 69.8 °F 59.0 °F 68% 30.06 in - WSW 11.5 mph - N/A   Clear
5:00 PM 66.2 °F 59.0 °F 78% 30.06 in 5.0 mi West 10.4 mph - N/A   Scattered Clouds
6:00 PM 64 °F 58 °F 76% 30.08 in 4 mi West 5.8 mph - -   Partly Cloudy
6:00 PM 64.4 °F 59.0 °F 83% 30.06 in 3.7 mi WNW 5.8 mph - N/A   Scattered Clouds
7:00 PM 62.6 °F 57.2 °F 82% 30.09 in 3.7 mi Calm Calm - N/A   Scattered Clouds
8:00 PM 60.8 °F 57.2 °F 88% 30.09 in 3.7 mi Calm Calm - N/A   Scattered Clouds
9:00 PM 61 °F 57 °F 81% 30.13 in 4 mi Calm Calm - -   Partly Cloudy
9:00 PM 60.8 °F 57.2 °F 88% 30.12 in 3.7 mi Calm Calm - N/A   Scattered Clouds
10:00 PM 59.0 °F 55.4 °F 88% 30.12 in 6.2 mi Calm Calm - N/A   Scattered Clouds
11:00 PM 59.0 °F 55.4 °F 88% 30.12 in 3.7 mi Calm Calm - N/A   Scattered Clouds